PDT,Max TemperatureF,Mean TemperatureF,Min TemperatureF,Max Dew PointF,MeanDew PointF,Min DewpointF,Max Humidity, Mean Humidity, Min Humidity, Max Sea Level PressureIn, Mean Sea Level PressureIn, Min Sea Level PressureIn, Max VisibilityMiles, Mean VisibilityMiles, Min VisibilityMiles, Max Wind SpeedMPH, Mean Wind SpeedMPH, Max Gust SpeedMPH,PrecipitationIn, CloudCover, Events, WindDirDegrees
2012-10-1,89,67,46,33,28,23,54,30,9,30.26,30.11,30.03,10,10,10,6,2,,0.00,0,,126
2012-10-2,90,69,48,32,25,20,41,22,9,30.11,29.97,29.88,10,10,10,10,5,,0.00,0,,221
2012-10-3,84,64,44,34,25,15,55,25,10,30.08,29.98,29.93,10,10,10,14,6,,0.00,0,,28
2012-10-4,84,63,42,29,19,5,35,21,9,30.15,30.02,29.95,10,10,10,13,3,,0.00,2,,296
2012-10-5,79,62,46,30,26,18,50,29,15,30.15,30.02,29.97,10,10,10,9,4,,0.00,4,,49
2012-10-6,75,58,43,27,20,15,41,26,14,30.15,30.00,29.92,10,10,10,10,5,,0.00,1,,349
2012-10-7,73,54,34,24,14,7,44,24,10,30.12,29.96,29.88,10,10,10,13,3,16,0.00,0,,327
2012-10-8,77,57,37,28,18,8,52,25,10,29.94,29.89,29.82,10,10,8,8,5,,0.00,0,,170
2012-10-9,73,55,37,35,28,23,65,38,15,30.00,29.89,29.84,10,10,10,7,4,22,0.00,3,,107
2012-10-10,78,62,48,41,31,25,45,30,15,29.97,29.86,29.78,10,10,7,26,7,36,0.00,4,Rain,126
2012-10-11,68,56,46,47,43,38,74,56,44,29.94,29.84,29.80,10,10,10,20,6,18,0.00,6,Rain,168
2012-10-12,71,60,51,45,42,33,72,51,35,30.02,29.90,29.83,10,10,10,12,7,,0.00,5,,198
2012-10-13,73,58,45,40,35,32,65,45,26,30.30,30.14,30.03,10,10,8,9,5,26,0.00,1,,296
2012-10-14,79,58,37,36,30,25,76,39,14,30.30,30.12,30.02,10,10,10,9,5,17,0.00,0,,181
2012-10-15,78,62,48,34,29,26,48,32,16,30.15,30.02,29.96,10,10,10,8,4,,0.00,3,,171
2012-10-16,84,65,48,43,30,17,46,29,16,30.04,29.94,29.86,10,10,6,20,9,29,0.00,1,,189
2012-10-17,70,52,35,23,20,17,52,33,14,30.20,30.08,30.04,10,10,9,10,4,,0.00,0,,347
2012-10-18,73,52,32,23,18,13,57,32,11,30.26,30.10,30.01,10,10,10,7,3,,0.00,1,,129
2012-10-19,81,58,35,27,21,15,52,28,10,30.13,29.96,29.85,10,10,10,9,4,,0.00,4,,190
2012-10-20,77,62,46,30,25,19,40,26,15,29.88,29.77,29.68,10,10,10,17,7,24,0.00,3,,172
2012-10-21,69,53,37,31,24,17,70,36,14,29.83,29.73,29.67,10,10,10,23,4,31,0.00,2,,262
2012-10-22,64,52,39,31,24,13,55,36,24,29.73,29.65,29.60,10,10,6,36,9,50,0.00,5,,269
2012-10-23,52,42,33,33,24,17,73,48,35,29.89,29.83,29.74,10,10,10,14,6,,0.00,6,,309
2012-10-24,57,40,26,30,21,15,69,48,25,30.05,29.94,29.87,10,10,10,22,6,29,0.00,4,,222
2012-10-25,54,39,26,31,24,20,81,57,31,30.27,30.17,30.06,10,10,10,15,4,21,0.00,3,,11
2012-10-26,57,39,21,23,19,14,80,49,24,30.39,30.20,30.09,10,10,10,7,2,,0.00,3,,179
2012-10-27,68,48,27,32,24,15,64,44,25,30.22,30.08,30.03,10,10,10,8,3,,0.00,3,,111
2012-10-28,72,51,32,31,27,22,70,45,21,30.17,30.04,29.97,10,10,10,6,3,,0.00,2,,154
2012-10-29,77,55,35,29,25,19,65,38,12,30.16,30.06,30.02,10,10,10,8,3,,0.00,1,,157
2012-10-30,79,56,35,27,20,17,52,30,10,30.16,30.01,29.93,10,10,10,9,5,,0.00,2,,131
2012-10-31,71,55,39,30,22,17,47,30,14,30.00,29.89,29.83,10,10,10,8,5,,0.00,5,,188